QPF
0.00 0.00 0.00 0.00 0.00 0.00 0.00 0.00 0.00 0.00 0.00 0.00 0.00 0.00 0.00 0.00 0.00 0.00 0.00 0.00 0.00 0.00 0.00 0.00 0.00 0.00 0.00 0.00 0.00 0.00 0.00 0.00 0.00 0.00 0.00 0.00 0.00 0.00 0.00 0.00 0.03 0.04 0.01
0.00 0.00 0.00 0.00 0.00 0.00 0.00 0.00 0.00 0.00 0.00 0.00 0.00 0.00 0.00 0.00 0.00 0.00 0.00 0.00 0.00 0.00 0.00 0.00 0.00 0.00 0.00 0.00 0.00 0.00 0.00 0.00 0.00 0.00 0.00 0.00 0.00 0.00 0.00 0.00 0.04 0.02 0.00
0.00 0.00 0.00 0.00 0.00 0.00 0.00 0.00 0.00 0.00 0.00 0.00 0.00 0.00 0.00 0.00 0.00 0.00 0.00 0.00 0.00 0.00 0.00 0.00 0.00 0.00 0.00 0.00 0.00 0.00 0.00 0.00 0.00 0.00 0.01 0.04 0.01 0.00 0.00 0.00 0.00 0.00 0.00
0.00 0.00 0.00 0.00 0.00 0.00 0.00 0.00 0.00 0.00 0.00 0.00 0.00 0.00 0.00 0.00 0.00 0.00 0.00 0.00 0.00 0.00 0.00 0.00 0.00 0.00 0.00 0.00 0.00 0.00 0.00 0.00 0.00 0.00 0.02 0.07 0.01 0.00 0.00 0.00 0.00 0.00 0.00
0.00 0.00 0.00 0.00 0.00 0.00 0.00 0.00 0.00 0.00 0.00 0.00 0.00 0.00 0.00 0.00 0.00 0.00 0.00 0.00 0.00 0.00 0.00 0.00 0.00 0.00 0.00 0.00 0.00 0.00 0.00 0.00 0.00 0.00 0.00 0.01 0.01 0.01 0.01 0.00 0.00 0.00 0.00
0.00 0.00 0.00 0.00 0.00 0.00 0.00 0.00 0.00 0.00 0.00 0.00 0.00 0.00 0.00 0.00 0.00 0.00 0.00 0.00 0.00 0.00 0.00 0.00 0.00 0.00 0.00 0.00 0.00 0.00 0.00 0.00 0.00 0.00 0.00 0.00 0.02 0.02 0.01 0.01 0.03 0.02 0.02
0.00 0.00 0.00 0.00 0.00 0.00 0.00 0.00 0.00 0.00 0.00 0.00 0.00 0.00 0.00 0.00 0.00 0.00 0.00 0.00 0.00 0.00 0.00 0.00 0.00 0.00 0.00 0.00 0.00 0.00 0.00 0.00 0.00 0.00 0.00 0.00 0.01 0.01 0.00 0.01 0.04 0.05 0.04
0.00 0.00 0.00 0.00 0.00 0.00 0.00 0.00 0.00 0.00 0.00 0.00 0.00 0.00 0.00 0.00 0.00 0.00 0.00 0.00 0.00 0.00 0.00 0.00 0.00 0.00 0.00 0.00 0.00 0.00 0.00 0.00 0.00 0.00 0.00 0.00 0.00 0.00 0.00 0.00 0.02 0.04 0.05
0.00 0.00 0.00 0.00 0.00 0.00 0.00 0.00 0.00 0.00 0.00 0.00 0.00 0.00 0.00 0.00 0.00 0.00 0.00 0.00 0.00 0.00 0.00 0.00 0.00 0.00 0.00 0.00 0.00 0.00 0.00 0.00 0.00 0.00 0.00 0.00 0.00 0.00 0.00 0.01 0.01 0.03 0.04
0.00 0.00 0.00 0.00 0.00 0.00 0.00 0.00 0.00 0.00 0.00 0.00 0.00 0.00 0.00 0.00 0.00 0.00 0.00 0.00 0.00 0.00 0.00 0.00 0.01 0.01 0.01 0.01 0.01 0.01 0.01 0.00 0.00 0.00 0.00 0.01 0.01 0.01 0.01 0.01 0.01 0.01 0.02
0.00 0.00 0.00 0.00 0.00 0.00 0.00 0.00 0.00 0.00 0.00 0.00 0.00 0.00 0.00 0.00 0.01 0.03 0.03 0.03 0.02 0.01 0.01 0.01 0.01 0.02 0.01 0.01 0.02 0.03 0.02 0.00 0.00 0.00 0.01 0.02 0.02 0.02 0.02 0.02 0.02 0.01 0.01
0.00 0.00 0.00 0.00 0.00 0.00 0.00 0.00 0.00 0.00 0.01 0.00 0.01 0.03 0.04 0.05 0.04 0.02 0.05 0.05 0.03 0.02 0.02 0.01 0.02 0.02 0.01 0.02 0.08 0.12 0.02 0.01 0.01 0.00 0.01 0.01 0.02 0.03 0.03 0.03 0.04 0.03 0.02
0.00 0.00 0.00 0.00 0.00 0.00 0.00 0.00 0.00 0.00 0.01 0.01 0.01 0.03 0.06 0.06 0.05 0.03 0.03 0.05 0.07 0.04 0.03 0.04 0.06 0.03 0.03 0.06 0.08 0.10 0.03 0.02 0.01 0.01 0.02 0.03 0.04 0.05 0.05 0.04 0.04 0.04 0.04
0.00 0.00 0.00 0.00 0.00 0.00 0.00 0.00 0.00 0.00 0.00 0.00 0.02 0.02 0.04 0.06 0.04 0.03 0.04 0.04 0.07 0.08 0.10 0.08 0.07 0.06 0.05 0.05 0.05 0.03 0.02 0.02 0.01 0.02 0.05 0.05 0.04 0.04 0.05 0.04 0.04 0.04 0.04
0.00 0.00 0.00 0.00 0.00 0.00 0.00 0.00 0.00 0.00 0.00 0.00 0.01 0.01 0.01 0.04 0.04 0.05 0.06 0.06 0.05 0.05 0.08 0.08 0.06 0.09 0.09 0.07 0.05 0.04 0.05 0.05 0.03 0.06 0.07 0.06 0.04 0.03 0.03 0.04 0.04 0.04 0.04
0.00 0.00 0.00 0.00 0.00 0.00 0.00 0.00 0.00 0.00 0.00 0.00 0.00 0.01 0.01 0.04 0.07 0.09 0.08 0.11 0.08 0.08 0.09 0.10 0.10 0.14 0.13 0.10 0.07 0.06 0.07 0.08 0.04 0.04 0.05 0.05 0.04 0.02 0.02 0.03 0.04 0.04 0.04
0.01 0.00 0.00 0.00 0.00 0.00 0.00 0.00 0.00 0.00 0.00 0.00 0.01 0.01 0.03 0.06 0.11 0.11 0.11 0.11 0.12 0.13 0.14 0.13 0.13 0.15 0.13 0.14 0.15 0.15 0.13 0.09 0.06 0.06 0.06 0.06 0.05 0.04 0.04 0.04 0.04 0.04 0.04
0.03 0.01 0.00 0.00 0.01 0.01 0.01 0.01 0.01 0.01 0.02 0.02 0.02 0.04 0.06 0.07 0.12 0.14 0.11 0.11 0.17 0.17 0.18 0.18 0.18 0.19 0.19 0.22 0.22 0.17 0.14 0.09 0.06 0.06 0.06 0.08 0.08 0.05 0.05 0.07 0.06 0.04 0.03
0.07 0.02 0.01 0.01 0.03 0.03 0.03 0.03 0.02 0.03 0.03 0.03 0.04 0.05 0.05 0.06 0.09 0.12 0.10 0.13 0.15 0.17 0.17 0.14 0.22 0.22 0.20 0.22 0.21 0.16 0.13 0.10 0.08 0.05 0.05 0.04 0.06 0.06 0.04 0.07 0.07 0.05 0.04
0.04 0.02 0.02 0.03 0.05 0.04 0.04 0.03 0.03 0.03 0.02 0.02 0.02 0.03 0.03 0.04 0.05 0.08 0.09 0.09 0.12 0.13 0.12 0.12 0.16 0.18 0.17 0.18 0.15 0.15 0.15 0.11 0.08 0.07 0.05 0.04 0.04 0.04 0.03 0.04 0.10 0.09 0.07
0.03 0.03 0.04 0.04 0.06 0.06 0.06 0.03 0.03 0.02 0.01 0.01 0.01 0.01 0.02 0.02 0.02 0.04 0.05 0.06 0.07 0.07 0.09 0.11 0.12 0.13 0.14 0.18 0.17 0.16 0.14 0.10 0.08 0.07 0.07 0.05 0.03 0.04 0.10 0.14 0.16 0.20 0.22
0.05 0.06 0.07 0.05 0.04 0.03 0.03 0.02 0.01 0.00 0.00 0.00 0.00 0.00 0.00 0.00 0.01 0.02 0.03 0.03 0.04 0.05 0.07 0.07 0.08 0.09 0.09 0.14 0.15 0.17 0.13 0.10 0.08 0.05 0.06 0.06 0.05 0.09 0.12 0.13 0.18 0.22 0.24
0.15 0.14 0.12 0.06 0.06 0.04 0.03 0.01 0.01 0.00 0.00 0.00 0.00 0.00 0.00 0.00 0.00 0.01 0.01 0.01 0.02 0.02 0.03 0.04 0.05 0.06 0.07 0.11 0.15 0.15 0.11 0.08 0.07 0.06 0.07 0.08 0.09 0.10 0.11 0.14 0.16 0.15 0.12
0.17 0.12 0.06 0.04 0.04 0.03 0.02 0.02 0.01 0.01 0.00 0.00 0.00 0.00 0.00 0.00 0.00 0.00 0.00 0.00 0.01 0.01 0.01 0.02 0.03 0.05 0.05 0.05 0.08 0.10 0.10 0.11 0.11 0.09 0.09 0.10 0.12 0.11 0.09 0.10 0.12 0.13 0.11
0.16 0.09 0.03 0.02 0.03 0.03 0.03 0.03 0.02 0.02 0.01 0.00 0.00 0.00 0.00 0.00 0.00 0.00 0.00 0.00 0.01 0.01 0.01 0.02 0.02 0.03 0.04 0.04 0.06 0.08 0.10 0.12 0.11 0.11 0.11 0.13 0.15 0.12 0.11 0.12 0.15 0.19 0.20
0.09 0.06 0.04 0.04 0.05 0.05 0.04 0.04 0.04 0.04 0.03 0.02 0.02 0.02 0.01 0.00 0.00 0.00 0.00 0.00 0.01 0.01 0.01 0.02 0.02 0.03 0.04 0.05 0.06 0.06 0.08 0.09 0.09 0.10 0.09 0.12 0.15 0.15 0.16 0.16 0.20 0.22 0.20
MSLP
1007.89 1007.95 1008.22 1008.71 1009.34 1010.03 1010.67 1011.18 1011.53 1011.72 1011.83 1011.90 1012.02 1012.22 1012.50 1012.85 1013.21 1013.54 1013.80 1013.97 1014.06 1014.10 1014.13 1014.18 1014.28 1014.42 1014.60 1014.77 1014.93 1015.05 1015.13 1015.18 1015.23 1015.28 1015.36 1015.47 1015.61 1015.77 1015.93 1016.09 1016.24 1016.38 1016.54
1007.65 1007.86 1008.28 1008.89 1009.60 1010.30 1010.90 1011.34 1011.59 1011.71 1011.75 1011.81 1011.95 1012.20 1012.55 1012.97 1013.40 1013.76 1014.03 1014.18 1014.25 1014.26 1014.28 1014.32 1014.42 1014.57 1014.75 1014.93 1015.09 1015.19 1015.26 1015.29 1015.32 1015.37 1015.46 1015.58 1015.73 1015.90 1016.07 1016.24 1016.41 1016.57 1016.74
1007.42 1007.79 1008.37 1009.10 1009.87 1010.59 1011.16 1011.54 1011.72 1011.77 1011.77 1011.81 1011.96 1012.25 1012.64 1013.09 1013.53 1013.89 1014.14 1014.27 1014.32 1014.32 1014.34 1014.40 1014.52 1014.70 1014.90 1015.08 1015.22 1015.30 1015.34 1015.35 1015.35 1015.39 1015.47 1015.60 1015.76 1015.95 1016.14 1016.32 1016.50 1016.69 1016.88
1007.21 1007.74 1008.46 1009.30 1010.15 1010.89 1011.44 1011.77 1011.91 1011.91 1011.89 1011.93 1012.09 1012.39 1012.79 1013.23 1013.64 1013.97 1014.18 1014.27 1014.30 1014.30 1014.34 1014.44 1014.61 1014.82 1015.04 1015.22 1015.34 1015.40 1015.39 1015.35 1015.32 1015.34 1015.41 1015.54 1015.71 1015.91 1016.12 1016.32 1016.52 1016.72 1016.93
1007.01 1007.68 1008.53 1009.46 1010.37 1011.13 1011.68 1012.00 1012.11 1012.11 1012.09 1012.14 1012.31 1012.61 1013.00 1013.40 1013.76 1014.02 1014.17 1014.22 1014.23 1014.24 1014.31 1014.47 1014.69 1014.94 1015.19 1015.37 1015.47 1015.47 1015.41 1015.32 1015.24 1015.22 1015.28 1015.40 1015.58 1015.79 1016.01 1016.23 1016.44 1016.66 1016.89
1006.82 1007.59 1008.53 1009.53 1010.48 1011.27 1011.83 1012.15 1012.28 1012.31 1012.32 1012.40 1012.59 1012.89 1013.24 1013.60 1013.88 1014.07 1014.14 1014.14 1014.13 1014.16 1014.27 1014.48 1014.76 1015.06 1015.32 1015.50 1015.56 1015.52 1015.39 1015.24 1015.11 1015.05 1015.09 1015.20 1015.38 1015.60 1015.83 1016.05 1016.27 1016.50 1016.74
1006.65 1007.46 1008.45 1009.48 1010.46 1011.26 1011.83 1012.18 1012.35 1012.42 1012.48 1012.61 1012.84 1013.14 1013.47 1013.77 1013.98 1014.08 1014.09 1014.04 1014.01 1014.05 1014.20 1014.46 1014.79 1015.12 1015.40 1015.57 1015.59 1015.49 1015.31 1015.10 1014.92 1014.83 1014.83 1014.94 1015.12 1015.34 1015.58 1015.81 1016.03 1016.26 1016.51
1006.50 1007.31 1008.29 1009.32 1010.28 1011.07 1011.66 1012.03 1012.24 1012.38 1012.51 1012.70 1012.97 1013.28 1013.59 1013.85 1014.00 1014.03 1013.98 1013.89 1013.84 1013.89 1014.07 1014.36 1014.72 1015.08 1015.36 1015.51 1015.50 1015.36 1015.12 1014.86 1014.65 1014.53 1014.52 1014.62 1014.81 1015.03 1015.27 1015.51 1015.73 1015.96 1016.21
1006.40 1007.16 1008.09 1009.06 1009.98 1010.74 1011.31 1011.70 1011.95 1012.14 1012.33 1012.59 1012.90 1013.24 1013.55 1013.78 1013.89 1013.88 1013.78 1013.66 1013.60 1013.65 1013.84 1014.15 1014.52 1014.88 1015.16 1015.29 1015.26 1015.08 1014.81 1014.53 1014.29 1014.16 1014.15 1014.26 1014.45 1014.68 1014.93 1015.16 1015.39 1015.61 1015.85
1006.35 1007.04 1007.88 1008.77 1009.60 1010.30 1010.84 1011.21 1011.48 1011.70 1011.95 1012.25 1012.61 1012.97 1013.29 1013.52 1013.61 1013.58 1013.47 1013.33 1013.26 1013.31 1013.49 1013.79 1014.16 1014.51 1014.77 1014.88 1014.83 1014.64 1014.37 1014.09 1013.86 1013.73 1013.74 1013.86 1014.06 1014.30 1014.56 1014.79 1015.02 1015.23 1015.46
1006.37 1006.97 1007.71 1008.50 1009.23 1009.84 1010.31 1010.64 1010.90 1011.13 1011.40 1011.73 1012.11 1012.50 1012.84 1013.07 1013.18 1013.15 1013.04 1012.91 1012.84 1012.87 1013.03 1013.31 1013.65 1013.98 1014.21 1014.31 1014.26 1014.08 1013.83 1013.57 1013.36 1013.27 1013.29 1013.43 1013.65 1013.90 1014.16 1014.40 1014.62 1014.83 1015.05
1006.42 1006.95 1007.59 1008.27 1008.90 1009.42 1009.81 1010.08 1010.29 1010.50 1010.75 1011.08 1011.47 1011.87 1012.23 1012.49 1012.62 1012.63 1012.54 1012.43 1012.36 1012.38 1012.52 1012.76 1013.05 1013.34 1013.55 1013.64 1013.60 1013.45 1013.24 1013.02 1012.85 1012.79 1012.84 1013.00 1013.22 1013.49 1013.75 1013.99 1014.21 1014.41 1014.61
1006.45 1006.93 1007.51 1008.11 1008.65 1009.08 1009.39 1009.59 1009.75 1009.90 1010.12 1010.42 1010.79 1011.19 1011.56 1011.84 1012.02 1012.07 1012.03 1011.95 1011.89 1011.90 1012.00 1012.20 1012.44 1012.68 1012.87 1012.95 1012.93 1012.82 1012.65 1012.48 1012.36 1012.33 1012.40 1012.57 1012.79 1013.05 1013.31 1013.55 1013.77 1013.96 1014.15
1006.38 1006.86 1007.41 1007.97 1008.46 1008.84 1009.09 1009.23 1009.33 1009.43 1009.59 1009.84 1010.16 1010.54 1010.91 1011.22 1011.44 1011.55 1011.56 1011.52 1011.49 1011.49 1011.56 1011.71 1011.89 1012.08 1012.24 1012.32 1012.32 1012.24 1012.12 1012.00 1011.93 1011.92 1011.99 1012.15 1012.36 1012.60 1012.84 1013.08 1013.29 1013.48 1013.66
1006.17 1006.67 1007.24 1007.80 1008.29 1008.66 1008.89 1009.01 1009.07 1009.11 1009.22 1009.40 1009.67 1010.01 1010.36 1010.69 1010.95 1011.11 1011.19 1011.21 1011.20 1011.20 1011.25 1011.34 1011.47 1011.61 1011.73 1011.80 1011.81 1011.77 1011.70 1011.62 1011.56 1011.56 1011.62 1011.74 1011.92 1012.12 1012.34 1012.56 1012.77 1012.96 1013.14
1005.76 1006.32 1006.94 1007.54 1008.07 1008.48 1008.75 1008.88 1008.94 1008.96 1009.02 1009.14 1009.35 1009.64 1009.97 1010.30 1010.59 1010.81 1010.94 1011.01 1011.04 1011.05 1011.07 1011.11 1011.18 1011.27 1011.35 1011.41 1011.43 1011.41 1011.37 1011.31 1011.26 1011.25 1011.27 1011.35 1011.47 1011.63 1011.81 1012.01 1012.21 1012.40 1012.59
1005.20 1005.81 1006.48 1007.16 1007.76 1008.25 1008.59 1008.80 1008.89 1008.92 1008.95 1009.03 1009.18 1009.42 1009.71 1010.03 1010.34 1010.60 1010.79 1010.91 1010.97 1010.99 1010.99 1011.00 1011.02 1011.06 1011.10 1011.14 1011.15 1011.15 1011.12 1011.07 1011.02 1010.97 1010.95 1010.96 1011.02 1011.12 1011.25 1011.42 1011.61 1011.81 1012.01
1004.56 1005.20 1005.92 1006.66 1007.35 1007.94 1008.39 1008.69 1008.85 1008.93 1008.96 1009.01 1009.12 1009.30 1009.55 1009.85 1010.16 1010.45 1010.68 1010.85 1010.95 1010.98 1010.97 1010.95 1010.92 1010.91 1010.91 1010.93 1010.94 1010.94 1010.91 1010.87 1010.80 1010.72 1010.64 1010.59 1010.57 1010.60 1010.69 1010.83 1011.01 1011.22 1011.43
1003.97 1004.59 1005.32 1006.09 1006.86 1007.55 1008.11 1008.53 1008.79 1008.93 1008.99 1009.03 1009.10 1009.23 1009.43 1009.70 1010.00 1010.31 1010.58 1010.78 1010.90 1010.95 1010.94 1010.89 1010.83 1010.78 1010.74 1010.73 1010.74 1010.74 1010.72 1010.67 1010.59 1010.47 1010.35 1010.23 1010.14 1010.11 1010.15 1010.25 1010.42 1010.63 1010.85
1003.59 1004.13 1004.81 1005.58 1006.38 1007.14 1007.81 1008.33 1008.69 1008.91 1009.01 1009.05 1009.09 1009.18 1009.33 1009.56 1009.84 1010.14 1010.42 1010.65 1010.80 1010.86 1010.85 1010.78 1010.69 1010.61 1010.55 1010.52 1010.52 1010.52 1010.51 1010.46 1010.37 1010.23 1010.07 1009.90 1009.75 1009.66 1009.65 1009.72 1009.87 1010.08 1010.31
1003.52 1003.95 1004.53 1005.24 1006.02 1006.81 1007.53 1008.13 1008.58 1008.86 1009.00 1009.05 1009.07 1009.11 1009.22 1009.40 1009.64 1009.93 1010.22 1010.46 1010.62 1010.69 1010.68 1010.61 1010.50 1010.39 1010.31 1010.27 1010.26 1010.27 1010.27 1010.24 1010.15 1010.01 1009.82 1009.61 1009.42 1009.28 1009.23 1009.26 1009.39 1009.58 1009.81
1003.87 1004.14 1004.58 1005.17 1005.88 1006.64 1007.37 1008.01 1008.51 1008.84 1009.01 1009.07 1009.07 1009.07 1009.11 1009.24 1009.44 1009.70 1009.97 1010.20 1010.37 1010.45 1010.44 1010.36 1010.24 1010.12 1010.03 1009.98 1009.98 1010.00 1010.02 1010.00 1009.93 1009.79 1009.60 1009.37 1009.15 1008.98 1008.88 1008.88 1008.98 1009.16 1009.38
1004.64 1004.75 1005.01 1005.46 1006.05 1006.73 1007.42 1008.06 1008.56 1008.91 1009.09 1009.14 1009.11 1009.06 1009.06 1009.12 1009.27 1009.48 1009.72 1009.93 1010.09 1010.17 1010.15 1010.06 1009.94 1009.81 1009.71 1009.66 1009.67 1009.70 1009.74 1009.75 1009.71 1009.59 1009.40 1009.17 1008.94 1008.74 1008.62 1008.59 1008.66 1008.81 1009.02
1005.75 1005.71 1005.81 1006.10 1006.55 1007.11 1007.72 1008.30 1008.78 1009.11 1009.28 1009.31 1009.24 1009.15 1009.09 1009.09 1009.17 1009.32 1009.51 1009.69 1009.82 1009.87 1009.85 1009.75 1009.61 1009.48 1009.37 1009.32 1009.33 1009.38 1009.44 1009.48 1009.46 1009.36 1009.20 1008.98 1008.75 1008.55 1008.41 1008.36 1008.42 1008.55 1008.75
1007.07 1006.92 1006.88 1007.02 1007.32 1007.76 1008.26 1008.76 1009.17 1009.46 1009.59 1009.59 1009.49 1009.34 1009.22 1009.15 1009.16 1009.23 1009.36 1009.48 1009.57 1009.60 1009.55 1009.43 1009.28 1009.13 1009.02 1008.96 1008.97 1009.02 1009.09 1009.14 1009.15 1009.08 1008.95 1008.76 1008.55 1008.36 1008.23 1008.18 1008.23 1008.37 1008.57
1008.44 1008.22 1008.09 1008.11 1008.28 1008.59 1008.97 1009.37 1009.71 1009.93 1010.02 1009.97 1009.82 1009.63 1009.44 1009.30 1009.23 1009.23 1009.27 1009.33 1009.36 1009.34 1009.25 1009.11 1008.94 1008.77 1008.64 1008.56 1008.55 1008.59 1008.66 1008.72 1008.75 1008.71 1008.61 1008.46 1008.29 1008.14 1008.04 1008.02 1008.09 1008.25 1008.46
Thickness
5853 5846 5838 5833 5828 5825 5821 5817 5814 5810 5807 5804 5801 5798 5795 5792 5789 5787 5784 5782 5779 5777 5775 5773 5771 5769 5767 5765 5763 5761 5760 5758 5757 5756 5755 5753 5752 5750 5749 5748 5747 5747 5746
5857 5846 5838 5833 5829 5825 5821 5817 5814 5810 5807 5804 5801 5798 5795 5792 5789 5787 5784 5781 5779 5777 5775 5773 5771 5769 5767 5765 5763 5761 5759 5758 5757 5756 5754 5753 5752 5750 5749 5748 5748 5747 5745
5855 5845 5838 5833 5828 5824 5821 5817 5813 5810 5807 5804 5800 5797 5794 5792 5789 5786 5783 5781 5779 5777 5774 5772 5770 5768 5766 5764 5762 5761 5759 5758 5757 5756 5755 5755 5753 5751 5749 5747 5746 5745 5744
5854 5845 5839 5832 5828 5824 5820 5816 5812 5809 5806 5803 5800 5797 5794 5791 5788 5785 5783 5780 5778 5776 5774 5772 5770 5768 5766 5764 5762 5761 5759 5758 5758 5757 5757 5757 5755 5753 5750 5748 5746 5745 5744
5854 5846 5838 5832 5827 5822 5818 5815 5811 5808 5805 5802 5799 5796 5793 5790 5787 5785 5782 5780 5778 5775 5773 5771 5770 5768 5766 5764 5762 5761 5759 5758 5758 5758 5760 5761 5758 5755 5752 5749 5747 5745 5744
5853 5846 5836 5831 5826 5821 5817 5814 5810 5807 5804 5801 5798 5795 5792 5789 5786 5784 5781 5779 5777 5775 5773 5771 5769 5768 5766 5764 5763 5761 5760 5759 5758 5760 5762 5762 5760 5757 5754 5751 5748 5746 5745
5856 5846 5835 5830 5825 5820 5816 5812 5809 5806 5803 5799 5796 5793 5790 5788 5785 5783 5780 5778 5776 5774 5772 5770 5769 5767 5766 5764 5763 5761 5760 5759 5759 5761 5764 5765 5763 5759 5756 5753 5750 5748 5746
5858 5846 5835 5829 5824 5819 5815 5811 5808 5804 5801 5798 5795 5792 5789 5786 5783 5781 5779 5777 5775 5773 5771 5770 5768 5767 5766 5764 5763 5762 5760 5760 5762 5763 5765 5767 5765 5762 5758 5756 5753 5750 5748
5861 5846 5835 5829 5823 5818 5814 5810 5807 5803 5799 5796 5793 5790 5787 5784 5782 5780 5778 5776 5774 5773 5771 5769 5768 5767 5766 5765 5763 5762 5761 5760 5760 5763 5766 5768 5766 5764 5761 5758 5756 5753 5750
5858 5846 5837 5830 5824 5819 5814 5809 5806 5802 5798 5795 5791 5788 5785 5783 5781 5779 5777 5776 5774 5772 5770 5769 5768 5766 5765 5764 5764 5763 5761 5760 5760 5763 5765 5767 5766 5764 5762 5760 5757 5755 5753
5854 5847 5841 5833 5826 5821 5816 5811 5805 5801 5797 5793 5790 5787 5784 5782 5782 5781 5779 5777 5774 5772 5770 5768 5767 5766 5764 5764 5764 5763 5761 5761 5763 5765 5768 5769 5767 5764 5762 5760 5758 5756 5755
5846 5845 5843 5836 5829 5824 5821 5814 5806 5802 5798 5793 5791 5788 5784 5782 5782 5783 5782 5778 5775 5772 5769 5767 5766 5764 5763 5763 5765 5763 5761 5762 5763 5767 5770 5769 5767 5764 5762 5760 5758 5757 5756
5845 5843 5842 5836 5830 5826 5822 5814 5810 5806 5802 5795 5792 5789 5786 5783 5781 5781 5781 5778 5774 5770 5767 5766 5764 5763 5763 5764 5765 5764 5763 5764 5766 5768 5770 5769 5766 5763 5761 5760 5758 5757 5756
5842 5840 5840 5836 5829 5824 5821 5817 5811 5808 5804 5800 5795 5790 5787 5782 5780 5779 5778 5777 5773 5770 5767 5766 5765 5764 5763 5763 5763 5763 5764 5764 5765 5766 5766 5765 5763 5761 5759 5758 5757 5756 5755
5838 5837 5836 5832 5825 5820 5815 5811 5809 5805 5803 5799 5794 5790 5786 5782 5778 5777 5774 5772 5769 5767 5766 5764 5763 5763 5761 5760 5760 5761 5761 5761 5761 5762 5762 5761 5760 5759 5758 5757 5756 5755 5755
5836 5835 5833 5827 5822 5815 5809 5804 5802 5801 5799 5795 5791 5787 5784 5779 5775 5772 5769 5766 5764 5763 5761 5760 5759 5757 5756 5755 5755 5756 5756 5757 5757 5757 5757 5758 5757 5756 5755 5754 5754 5754 5753
5835 5834 5829 5823 5818 5810 5804 5800 5798 5796 5794 5792 5788 5784 5780 5775 5771 5767 5763 5761 5760 5759 5758 5756 5754 5753 5751 5751 5750 5750 5750 5751 5752 5753 5753 5753 5753 5752 5753 5752 5752 5752 5751
5833 5829 5825 5821 5813 5806 5800 5796 5794 5792 5789 5786 5783 5779 5775 5770 5766 5763 5759 5758 5757 5756 5754 5752 5749 5747 5745 5744 5744 5743 5744 5745 5747 5748 5748 5748 5748 5749 5750 5750 5750 5750 5749
5827 5822 5817 5813 5807 5801 5796 5791 5788 5786 5783 5780 5777 5773 5769 5765 5762 5759 5756 5754 5753 5752 5750 5748 5748 5744 5741 5740 5740 5740 5740 5741 5743 5744 5744 5745 5745 5746 5748 5747 5747 5746 5746
5822 5817 5810 5804 5800 5794 5789 5784 5782 5780 5778 5775 5773 5769 5765 5761 5758 5755 5752 5751 5750 5748 5746 5745 5742 5741 5739 5736 5736 5737 5738 5739 5740 5741 5741 5742 5743 5743 5744 5744 5744 5743 5742
5810 5806 5799 5793 5790 5785 5780 5775 5771 5770 5770 5769 5768 5764 5760 5757 5753 5750 5748 5747 5746 5744 5743 5741 5739 5736 5735 5734 5730 5729 5733 5736 5738 5739 5739 5738 5740 5741 5740 5740 5740 5739 5736
5795 5792 5787 5783 5781 5777 5773 5770 5767 5765 5765 5765 5763 5759 5756 5752 5749 5748 5745 5742 5742 5740 5739 5738 5736 5732 5731 5731 5725 5720 5720 5725 5731 5737 5737 5735 5736 5737 5737 5736 5735 5733 5731
5779 5776 5776 5774 5771 5768 5766 5764 5761 5758 5756 5755 5753 5752 5750 5748 5745 5743 5740 5739 5737 5736 5734 5734 5732 5729 5725 5726 5724 5717 5712 5713 5721 5729 5732 5733 5733 5732 5733 5732 5732 5731 5730
5766 5767 5767 5765 5762 5761 5758 5754 5750 5746 5744 5745 5746 5746 5745 5743 5741 5739 5737 5735 5733 5732 5731 5730 5731 5726 5723 5720 5721 5720 5717 5715 5709 5713 5721 5726 5727 5727 5727 5728 5729 5729 5728
5756 5755 5755 5753 5750 5749 5748 5745 5741 5738 5738 5740 5740 5738 5737 5737 5737 5736 5735 5732 5730 5728 5727 5726 5724 5722 5720 5717 5716 5715 5713 5712 5710 5705 5706 5713 5717 5721 5722 5723 5723 5722 5722
5743 5742 5740 5738 5736 5736 5736 5734 5731 5728 5727 5727 5727 5726 5728 5730 5731 5732 5731 5729 5726 5724 5723 5721 5720 5718 5717 5715 5713 5711 5708 5706 5705 5703 5702 5704 5706 5712 5716 5717 5716 5714 5714